SCP
0 0 0 0 0 0 0 0 0 0 0 0 0 0 0 0 0 0 0 0 0 0 0 0 0 0 0 0 0 0 0 0 0 0 0 0 0 0 0 0 0 0 0 0 -0
0 0 0 0 0 0 0 0 0 0 0 0 0 0 0 0 0 0 0 0 0 0 0 0 0 0 0 0 0 0 0 0 0 0 0 0 0 0 0 0 0 0 0 0 0
0 0 0 0 0 0 0 0 0 0 0 0 0 0 0 0 0 0 0 0 0 0 0 0 0 0 0 0 0 0 0 0 0 0 0 0 0 0 0 0 0 0 0 0 0
0 0 0 0 0 0 0 0 0 0 0 0 0 0 0 0 0 0 0 0 0 0 0 0 0 0 0 0 0 0 0 0 0 0 0 0 0 0 0 0 0 0 0 0 0
0 0 0 0 0 0 0 0 0 0 0 0 0 0 0 0 0 0 0 0 0 0 0 0 0 0 0 0 0 0 0 0 0 0 0 0 0 0 0 0 0 0 0 0 0
0 0 0 0 0 0 0 0 0 0 0 0 0 0 0 0 0 0 0 0 0 0 0 0 0 0 0 0 0 0 0 0 0 0 0 0 0 0 0 0 0 0 0 0 0
1 0 0 0 0 0 0 0 0 0 0 0 0 0 0 0 0 0 0 0 0 0 0 0 0 0 0 0 0 0 0 0 0 0 0 0 0 0 0 0 0 0 0 0 0
0 0 0 0 0 0 0 0 0 0 0 0 0 0 0 0 0 0 0 0 0 0 0 0 0 0 0 0 0 0 0 0 0 0 0 0 0 0 0 0 0 0 0 0 0
0 0 0 0 0 0 0 0 0 1 0 0 0 0 0 0 0 0 0 0 0 0 0 0 0 0 0 0 0 0 0 0 0 0 0 0 0 0 0 0 0 0 0 0 0
0 0 0 0 0 0 0 0 0 0 0 0 0 0 0 0 0 0 0 0 0 0 0 0 0 0 0 0 0 0 0 0 0 0 0 0 0 0 0 0 0 0 0 0 0
0 0 0 0 0 1 1 1 1 0 0 0 0 0 0 0 0 0 0 0 0 0 0 0 0 0 0 0 0 0 0 0 0 0 0 0 0 0 0 0 0 0 0 0 0
0 0 0 0 0 0 0 0 0 0 0 0 0 0 0 0 0 0 0 0 0 0 0 0 0 0 0 0 0 0 0 0 0 0 0 0 0 0 0 0 0 0 0 0 0
0 0 0 0 0 0 0 0 0 0 0 0 0 0 0 0 0 0 0 0 0 0 0 0 0 0 0 0 0 0 0 0 0 0 0 0 -0 0 -0 0 0 0 0 0 0
0 0 0 0 0 0 0 0 0 0 0 0 0 0 0 0 0 0 0 0 0 0 0 0 0 0 0 0 0 0 0 0 0 0 0 0 -0 -0 0 0 0 0 0 0 0
0 0 0 0 0 0 0 0 0 0 0 0 0 0 0 0 0 0 0 0 0 0 0 0 0 0 0 0 0 0 0 0 0 0 0 0 0 -0 -0 0 0 0 0 0 0
0 0 0 0 0 0 0 0 0 0 0 0 0 0 0 0 0 0 0 0 0 0 0 0 0 0 0 0 0 0 0 0 0 0 0 0 0 -0 -0 0 0 0 0 0 0
0 0 0 0 0 0 0 0 0 0 0 0 0 0 0 0 0 0 0 0 0 0 0 0 0 0 0 0 0 0 0 0 0 0 0 0 0 0 0 0 0 0 0 0 0
0 0 0 0 0 0 0 0 0 0 0 0 0 0 0 0 0 0 0 0 0 0 0 0 0 0 0 0 0 0 0 0 0 0 0 0 0 0 -0 0 -0 0 0 0 0
0 0 0 0 0 0 0 0 0 0 0 0 0 0 0 0 0 0 0 0 0 0 0 0 0 0 0 0 0 0 0 0 0 0 0 0 0 0 -0 0 0 0 0 0 0
0 0 0 0 0 0 0 0 0 0 0 0 0 0 0 0 0 0 0 0 0 0 0 0 0 0 0 0 0 0 0 0 0 0 0 0 0 0 0 -0 0 0 0 0 0
0 0 0 0 0 0 0 0 0 0 0 0 0 0 0 0 0 0 0 0 0 0 0 0 0 0 0 0 0 0 0 0 0 0 0 0 0 0 -0 -0 -0 0 0 0 0
0 0 0 0 0 0 0 0 0 0 0 0 0 0 0 0 0 0 0 0 0 0 0 0 0 0 0 0 0 0 0 0 0 0 0 0 0 0 -0 0 0 0 0 0 0
0 0 0 0 0 0 0 0 0 0 0 0 0 0 0 0 0 0 0 0 0 0 0 0 0 0 0 0 0 0 0 0 0 0 0 0 0 -0 0 0 0 0 -0 -0 0
0 0 0 0 0 0 0 0 0 0 0 0 0 0 0 0 0 0 0 0 0 0 0 0 0 0 0 0 0 0 0 0 0 0 0 0 0 0 0 0 0 0 0 -0 -0
0 0 0 0 0 0 0 0 0 0 0 0 0 0 0 0 0 0 0 0 0 0 0 0 0 0 0 0 0 0 0 0 0 0 0 0 0 0 0 0 0 -0 -0 0 0
0 0 0 0 0 0 0 0 0 0 0 0 0 0 0 0 0 0 0 0 0 0 0 0 0 0 0 0 0 0 0 0 0 0 0 0 0 0 0 0 0 0 0 0 0
0 0 0 0 0 0 0 0 0 0 0 0 0 0 0 0 0 0 0 0 0 0 0 0 0 0 -0 -0 -0 0 0 0 0 0 0 0 0 0 0 0 0 0 0 0 0
Wind_Speed_500mb
77 72 69 74 74 67 61 60 59 55 49 44 40 38 37 43 46 45 45 40 46 26 26 27 22 15 14 15 13 7 5 4 7 10 6 8 7 8 11 27 24 24 12 9 49
86 78 71 72 75 76 63 63 59 57 52 47 42 37 37 41 43 47 53 41 36 37 23 23 17 15 9 14 17 10 5 12 10 5 2 10 8 9 9 22 13 25 24 22 52
92 86 75 73 76 74 73 61 61 58 54 49 45 38 35 31 19 39 50 43 38 33 38 21 14 15 10 11 13 15 12 3 8 3 11 11 6 9 8 6 29 48 40 44 58
103 94 83 75 72 78 75 65 62 62 56 52 46 40 37 35 14 13 40 43 37 36 35 37 27 9 8 8 9 12 22 13 6 4 11 13 21 12 21 19 26 36 43 53 66
113 102 91 79 74 79 75 69 62 64 60 54 49 46 46 37 16 10 35 49 40 37 36 44 38 21 9 9 5 6 14 23 17 7 15 24 35 21 28 33 16 30 47 55 60
116 107 98 86 77 76 80 74 61 63 61 58 57 48 46 22 21 9 31 50 44 41 37 36 30 38 11 6 10 7 13 13 14 10 11 8 23 12 24 31 31 31 50 61 63
122 111 103 92 81 78 84 79 68 60 63 62 60 54 46 30 24 21 34 44 38 35 40 35 24 27 21 6 9 4 8 11 21 18 7 11 10 12 52 36 31 40 49 62 65
95 112 110 97 85 80 84 79 75 62 63 61 60 60 21 33 30 33 35 44 37 31 28 29 23 22 12 20 6 4 2 7 8 26 16 13 19 19 33 41 45 45 56 64 70
73 122 114 103 89 83 86 79 75 65 61 55 69 49 22 40 39 39 40 41 33 30 25 23 23 9 15 11 3 3 8 11 15 18 9 18 11 44 59 46 50 48 57 66 72
95 127 118 108 94 88 88 82 73 61 54 56 33 29 26 45 50 48 42 40 33 34 25 15 8 5 5 10 23 11 7 8 10 8 15 14 21 23 43 29 66 69 62 63 74
63 109 113 110 99 94 92 85 68 40 67 31 28 7 18 43 53 46 50 43 33 25 11 14 7 19 21 12 2 4 9 12 7 14 8 17 21 36 46 43 53 64 56 69 79
95 103 116 109 103 101 102 100 112 73 54 26 17 26 35 58 32 52 55 25 24 12 21 7 28 14 13 8 10 9 6 9 11 16 6 15 28 25 34 36 51 64 70 76 71
85 75 130 112 107 108 122 101 83 82 22 11 36 40 39 46 35 57 62 22 15 14 25 15 7 27 17 11 13 12 25 18 10 9 4 11 35 24 33 51 62 71 76 77 85
73 80 115 116 112 117 109 92 68 84 10 11 19 20 38 32 8 48 56 28 10 28 13 17 13 25 15 22 19 24 12 7 5 3 10 8 27 21 18 38 44 68 77 85 97
70 75 128 127 117 123 121 94 85 57 20 23 13 24 41 28 30 37 62 18 15 12 11 10 16 17 23 10 18 12 10 17 16 18 2 13 12 11 30 46 40 50 80 92 116
75 74 143 128 103 105 109 97 77 9 12 20 27 28 25 14 9 42 43 19 10 8 7 10 4 10 16 15 27 13 7 8 5 7 13 28 20 44 29 42 18 38 74 85 95
76 92 131 133 100 114 122 91 13 14 4 22 25 35 45 19 14 22 35 26 16 19 26 5 9 1 2 10 3 14 11 10 9 12 21 7 24 56 19 18 16 26 59 76 86
86 68 130 120 113 131 107 27 15 8 21 10 29 42 40 37 19 23 35 28 29 8 10 18 9 20 11 15 6 31 33 7 12 11 11 3 20 26 20 41 56 62 62 58 66
85 93 119 114 129 132 91 33 24 20 18 29 40 38 20 36 15 15 27 31 28 21 13 14 12 2 9 11 22 12 20 35 17 1 2 9 18 23 19 22 27 53 70 83 83
86 78 89 119 139 110 41 21 11 15 26 41 25 23 26 47 15 27 31 18 13 34 9 4 4 6 9 9 9 27 2 9 16 23 27 16 15 24 7 13 22 31 57 74 75
84 53 100 136 137 82 38 12 11 20 54 14 14 14 17 35 15 25 34 2 33 23 43 10 7 3 10 21 31 12 12 16 5 9 14 18 22 16 29 34 36 21 56 57 50
60 11 122 154 29 19 34 18 22 15 9 9 11 9 27 37 11 13 18 14 21 35 34 25 5 15 26 9 9 24 43 23 9 17 9 5 40 13 15 18 22 44 55 67 68
44 43 110 141 25 29 22 10 10 17 11 8 9 3 9 22 12 14 21 7 10 28 23 20 15 14 5 6 5 13 25 37 34 23 38 20 40 4 19 15 38 45 49 50 58
35 17 68 82 24 42 44 14 12 12 7 13 13 12 15 11 10 16 7 6 8 9 9 23 8 9 21 3 5 10 27 33 33 24 41 31 65 45 15 16 19 34 47 44 41
15 16 51 23 22 35 30 11 30 13 5 17 5 17 19 12 7 8 10 7 7 36 14 10 4 1 14 14 12 16 28 36 47 41 26 57 52 56 38 39 48 57 51 55 44
12 31 25 23 53 39 28 26 43 9 13 9 21 23 13 13 12 13 16 9 10 7 7 13 7 14 13 18 12 16 32 37 49 59 52 65 59 68 40 50 53 61 68 57 63
38 58 68 35 35 34 32 34 30 17 19 16 38 16 13 17 31 38 29 23 21 15 11 14 7 5 12 12 12 15 23 29 30 54 54 56 74 67 49 51 68 77 73 77 70
Wind_Direction_500mb
239 239 237 225 222 224 225 221 216 215 215 215 217 218 216 213 213 212 215 229 229 236 228 224 220 220 197 187 166 140 82 224 225 169 238 340 197 211 189 150 167 194 214 224 181
236 233 234 228 220 220 221 221 216 212 211 210 209 213 211 211 213 218 216 217 218 225 228 220 216 215 192 172 159 137 148 224 211 194 233 337 202 202 181 169 203 194 195 187 182
233 230 227 226 220 217 217 219 216 211 207 204 206 205 206 192 198 237 214 215 210 213 219 209 193 200 205 187 151 164 194 173 244 189 342 332 305 213 210 218 206 201 190 186 187
233 226 224 222 220 214 213 214 214 211 204 201 199 196 183 171 187 213 203 207 204 199 206 208 209 211 161 199 198 147 232 232 231 195 313 301 322 308 226 236 238 223 208 192 191
231 224 220 220 217 212 207 207 211 208 203 199 193 191 172 187 222 222 193 191 193 192 200 200 197 193 197 184 177 288 195 196 219 277 279 289 277 254 270 262 269 217 200 203 204
224 223 218 216 212 208 203 202 205 203 202 197 196 194 176 190 211 203 187 188 188 188 191 191 196 193 176 184 183 309 287 257 226 231 281 270 271 242 269 269 247 221 213 207 210
215 220 216 212 207 204 200 200 199 196 200 198 198 195 189 201 210 186 174 185 183 179 180 184 175 174 160 129 206 33 317 294 237 213 229 349 275 223 255 258 239 222 219 212 214
229 215 213 207 204 198 195 196 197 192 199 195 190 184 189 202 193 185 173 176 178 185 187 183 169 150 138 129 84 140 244 274 231 182 222 148 253 265 253 241 237 229 221 219 218
240 214 211 204 200 194 189 190 189 187 195 189 182 180 178 182 183 183 180 178 172 177 178 190 185 133 126 139 127 213 232 249 308 214 153 174 217 247 250 243 250 236 228 226 227
230 205 208 202 195 189 185 184 181 180 184 192 186 149 192 191 180 183 180 181 145 143 126 147 123 120 145 176 218 194 223 212 233 272 226 210 232 247 242 235 243 249 240 233 234
233 203 206 199 191 184 178 172 165 171 181 190 206 103 178 185 185 184 180 176 163 157 151 174 175 210 191 217 356 98 211 232 221 239 258 250 247 250 250 252 252 256 250 246 239
220 202 201 197 186 180 176 175 177 182 166 191 185 179 164 176 171 181 175 162 162 170 120 149 225 180 180 191 252 252 233 253 305 280 253 275 264 258 257 252 243 251 254 253 254
221 218 199 196 185 179 182 179 172 161 137 128 169 179 167 171 183 185 185 159 179 167 181 190 143 167 158 170 206 236 229 231 245 340 272 323 276 249 260 246 251 253 253 251 253
222 218 194 190 181 179 179 171 169 160 109 160 178 176 178 176 179 189 186 170 175 196 147 232 208 169 174 205 173 234 192 213 218 125 253 116 281 238 248 249 231 239 242 245 247
213 214 187 186 178 180 173 166 160 159 177 158 166 176 179 173 144 194 187 185 164 153 159 189 178 172 208 196 164 242 182 209 219 223 350 228 271 284 211 252 237 227 237 236 246
212 212 190 181 178 176 164 157 158 105 216 174 149 173 158 164 159 157 181 184 140 123 92 178 202 192 206 181 192 165 148 47 13 170 230 238 207 265 226 244 239 220 236 238 240
208 196 182 176 172 167 159 156 115 176 161 153 175 172 181 163 152 176 178 186 166 178 207 80 190 180 214 134 184 187 166 226 215 224 240 234 203 250 284 274 232 226 239 245 247
205 188 181 179 167 163 158 142 154 166 175 160 155 160 179 157 170 183 182 192 211 160 132 193 279 177 174 208 139 212 208 210 234 217 243 137 217 250 237 258 249 247 249 255 253
195 199 176 172 165 164 157 175 187 174 164 143 140 151 169 180 155 153 195 203 198 179 160 174 239 161 175 154 169 170 231 238 270 279 223 214 273 289 249 263 256 250 252 254 252
192 192 176 168 165 164 168 167 134 157 127 144 148 176 169 180 144 173 178 207 203 195 130 192 239 197 166 107 233 218 62 202 205 247 252 233 250 246 314 259 254 248 249 256 256
186 164 169 167 164 168 178 180 122 160 135 139 158 129 168 173 154 176 175 274 185 181 194 154 174 130 133 205 197 183 207 232 242 205 227 253 253 210 238 235 249 255 256 262 269
161 139 161 160 163 171 177 147 122 140 137 127 112 109 158 162 131 158 187 185 187 159 194 193 190 241 227 151 251 255 225 215 217 212 238 306 265 194 227 254 249 261 269 273 271
152 130 159 159 165 166 160 105 115 148 147 141 113 147 128 150 131 188 165 146 147 169 170 161 212 229 190 209 187 245 238 240 253 270 262 249 260 257 224 251 263 271 283 284 273
163 144 154 171 171 159 155 153 117 141 98 90 108 112 103 131 23 151 122 128 122 148 135 186 188 208 234 125 34 226 225 227 240 240 240 237 260 250 281 272 286 271 287 287 280
185 156 154 159 160 158 160 111 138 137 122 133 78 156 134 133 91 95 103 103 115 140 120 133 175 204 278 231 275 332 286 237 225 234 232 243 247 259 252 275 288 295 301 293 276
155 148 146 147 154 149 163 168 160 113 152 158 138 144 105 122 151 163 137 156 178 149 125 178 261 181 249 234 177 267 270 273 257 234 234 248 256 256 267 259 264 269 269 278 273
154 142 144 152 158 154 178 165 154 127 30 120 130 115 102 155 140 161 155 160 151 142 151 163 154 106 261 190 184 257 254 245 236 238 230 239 243 261 251 251 254 258 256 256 270
Wind_Speed_850mb
77 72 69 74 74 67 61 60 59 55 49 44 40 38 37 43 46 45 45 40 46 26 26 27 22 15 14 15 13 7 5 4 7 10 6 8 7 8 11 27 24 24 12 9 49
86 78 71 72 75 76 63 63 59 57 52 47 42 37 37 41 43 47 53 41 36 37 23 23 17 15 9 14 17 10 5 12 10 5 2 10 8 9 9 22 13 25 24 22 52
92 86 75 73 76 74 73 61 61 58 54 49 45 38 35 31 19 39 50 43 38 33 38 21 14 15 10 11 13 15 12 3 8 3 11 11 6 9 8 6 29 48 40 44 58
103 94 83 75 72 78 75 65 62 62 56 52 46 40 37 35 14 13 40 43 37 36 35 37 27 9 8 8 9 12 22 13 6 4 11 13 21 12 21 19 26 36 43 53 66
113 102 91 79 74 79 75 69 62 64 60 54 49 46 46 37 16 10 35 49 40 37 36 44 38 21 9 9 5 6 14 23 17 7 15 24 35 21 28 33 16 30 47 55 60
116 107 98 86 77 76 80 74 61 63 61 58 57 48 46 22 21 9 31 50 44 41 37 36 30 38 11 6 10 7 13 13 14 10 11 8 23 12 24 31 31 31 50 61 63
122 111 103 92 81 78 84 79 68 60 63 62 60 54 46 30 24 21 34 44 38 35 40 35 24 27 21 6 9 4 8 11 21 18 7 11 10 12 52 36 31 40 49 62 65
95 112 110 97 85 80 84 79 75 62 63 61 60 60 21 33 30 33 35 44 37 31 28 29 23 22 12 20 6 4 2 7 8 26 16 13 19 19 33 41 45 45 56 64 70
73 122 114 103 89 83 86 79 75 65 61 55 69 49 22 40 39 39 40 41 33 30 25 23 23 9 15 11 3 3 8 11 15 18 9 18 11 44 59 46 50 48 57 66 72
95 127 118 108 94 88 88 82 73 61 54 56 33 29 26 45 50 48 42 40 33 34 25 15 8 5 5 10 23 11 7 8 10 8 15 14 21 23 43 29 66 69 62 63 74
63 109 113 110 99 94 92 85 68 40 67 31 28 7 18 43 53 46 50 43 33 25 11 14 7 19 21 12 2 4 9 12 7 14 8 17 21 36 46 43 53 64 56 69 79
95 103 116 109 103 101 102 100 112 73 54 26 17 26 35 58 32 52 55 25 24 12 21 7 28 14 13 8 10 9 6 9 11 16 6 15 28 25 34 36 51 64 70 76 71
85 75 130 112 107 108 122 101 83 82 22 11 36 40 39 46 35 57 62 22 15 14 25 15 7 27 17 11 13 12 25 18 10 9 4 11 35 24 33 51 62 71 76 77 85
73 80 115 116 112 117 109 92 68 84 10 11 19 20 38 32 8 48 56 28 10 28 13 17 13 25 15 22 19 24 12 7 5 3 10 8 27 21 18 38 44 68 77 85 97
70 75 128 127 117 123 121 94 85 57 20 23 13 24 41 28 30 37 62 18 15 12 11 10 16 17 23 10 18 12 10 17 16 18 2 13 12 11 30 46 40 50 80 92 116
75 74 143 128 103 105 109 97 77 9 12 20 27 28 25 14 9 42 43 19 10 8 7 10 4 10 16 15 27 13 7 8 5 7 13 28 20 44 29 42 18 38 74 85 95
76 92 131 133 100 114 122 91 13 14 4 22 25 35 45 19 14 22 35 26 16 19 26 5 9 1 2 10 3 14 11 10 9 12 21 7 24 56 19 18 16 26 59 76 86
86 68 130 120 113 131 107 27 15 8 21 10 29 42 40 37 19 23 35 28 29 8 10 18 9 20 11 15 6 31 33 7 12 11 11 3 20 26 20 41 56 62 62 58 66
85 93 119 114 129 132 91 33 24 20 18 29 40 38 20 36 15 15 27 31 28 21 13 14 12 2 9 11 22 12 20 35 17 1 2 9 18 23 19 22 27 53 70 83 83
86 78 89 119 139 110 41 21 11 15 26 41 25 23 26 47 15 27 31 18 13 34 9 4 4 6 9 9 9 27 2 9 16 23 27 16 15 24 7 13 22 31 57 74 75
84 53 100 136 137 82 38 12 11 20 54 14 14 14 17 35 15 25 34 2 33 23 43 10 7 3 10 21 31 12 12 16 5 9 14 18 22 16 29 34 36 21 56 57 50
60 11 122 154 29 19 34 18 22 15 9 9 11 9 27 37 11 13 18 14 21 35 34 25 5 15 26 9 9 24 43 23 9 17 9 5 40 13 15 18 22 44 55 67 68
44 43 110 141 25 29 22 10 10 17 11 8 9 3 9 22 12 14 21 7 10 28 23 20 15 14 5 6 5 13 25 37 34 23 38 20 40 4 19 15 38 45 49 50 58
35 17 68 82 24 42 44 14 12 12 7 13 13 12 15 11 10 16 7 6 8 9 9 23 8 9 21 3 5 10 27 33 33 24 41 31 65 45 15 16 19 34 47 44 41
15 16 51 23 22 35 30 11 30 13 5 17 5 17 19 12 7 8 10 7 7 36 14 10 4 1 14 14 12 16 28 36 47 41 26 57 52 56 38 39 48 57 51 55 44
12 31 25 23 53 39 28 26 43 9 13 9 21 23 13 13 12 13 16 9 10 7 7 13 7 14 13 18 12 16 32 37 49 59 52 65 59 68 40 50 53 61 68 57 63
38 58 68 35 35 34 32 34 30 17 19 16 38 16 13 17 31 38 29 23 21 15 11 14 7 5 12 12 12 15 23 29 30 54 54 56 74 67 49 51 68 77 73 77 70
Wind_Direction_850mb
239 239 237 225 222 224 225 221 216 215 215 215 217 218 216 213 213 212 215 229 229 236 228 224 220 220 197 187 166 140 82 224 225 169 238 340 197 211 189 150 167 194 214 224 181
236 233 234 228 220 220 221 221 216 212 211 210 209 213 211 211 213 218 216 217 218 225 228 220 216 215 192 172 159 137 148 224 211 194 233 337 202 202 181 169 203 194 195 187 182
233 230 227 226 220 217 217 219 216 211 207 204 206 205 206 192 198 237 214 215 210 213 219 209 193 200 205 187 151 164 194 173 244 189 342 332 305 213 210 218 206 201 190 186 187
233 226 224 222 220 214 213 214 214 211 204 201 199 196 183 171 187 213 203 207 204 199 206 208 209 211 161 199 198 147 232 232 231 195 313 301 322 308 226 236 238 223 208 192 191
231 224 220 220 217 212 207 207 211 208 203 199 193 191 172 187 222 222 193 191 193 192 200 200 197 193 197 184 177 288 195 196 219 277 279 289 277 254 270 262 269 217 200 203 204
224 223 218 216 212 208 203 202 205 203 202 197 196 194 176 190 211 203 187 188 188 188 191 191 196 193 176 184 183 309 287 257 226 231 281 270 271 242 269 269 247 221 213 207 210
215 220 216 212 207 204 200 200 199 196 200 198 198 195 189 201 210 186 174 185 183 179 180 184 175 174 160 129 206 33 317 294 237 213 229 349 275 223 255 258 239 222 219 212 214
229 215 213 207 204 198 195 196 197 192 199 195 190 184 189 202 193 185 173 176 178 185 187 183 169 150 138 129 84 140 244 274 231 182 222 148 253 265 253 241 237 229 221 219 218
240 214 211 204 200 194 189 190 189 187 195 189 182 180 178 182 183 183 180 178 172 177 178 190 185 133 126 139 127 213 232 249 308 214 153 174 217 247 250 243 250 236 228 226 227
230 205 208 202 195 189 185 184 181 180 184 192 186 149 192 191 180 183 180 181 145 143 126 147 123 120 145 176 218 194 223 212 233 272 226 210 232 247 242 235 243 249 240 233 234
233 203 206 199 191 184 178 172 165 171 181 190 206 103 178 185 185 184 180 176 163 157 151 174 175 210 191 217 356 98 211 232 221 239 258 250 247 250 250 252 252 256 250 246 239
220 202 201 197 186 180 176 175 177 182 166 191 185 179 164 176 171 181 175 162 162 170 120 149 225 180 180 191 252 252 233 253 305 280 253 275 264 258 257 252 243 251 254 253 254
221 218 199 196 185 179 182 179 172 161 137 128 169 179 167 171 183 185 185 159 179 167 181 190 143 167 158 170 206 236 229 231 245 340 272 323 276 249 260 246 251 253 253 251 253
222 218 194 190 181 179 179 171 169 160 109 160 178 176 178 176 179 189 186 170 175 196 147 232 208 169 174 205 173 234 192 213 218 125 253 116 281 238 248 249 231 239 242 245 247
213 214 187 186 178 180 173 166 160 159 177 158 166 176 179 173 144 194 187 185 164 153 159 189 178 172 208 196 164 242 182 209 219 223 350 228 271 284 211 252 237 227 237 236 246
212 212 190 181 178 176 164 157 158 105 216 174 149 173 158 164 159 157 181 184 140 123 92 178 202 192 206 181 192 165 148 47 13 170 230 238 207 265 226 244 239 220 236 238 240
208 196 182 176 172 167 159 156 115 176 161 153 175 172 181 163 152 176 178 186 166 178 207 80 190 180 214 134 184 187 166 226 215 224 240 234 203 250 284 274 232 226 239 245 247
205 188 181 179 167 163 158 142 154 166 175 160 155 160 179 157 170 183 182 192 211 160 132 193 279 177 174 208 139 212 208 210 234 217 243 137 217 250 237 258 249 247 249 255 253
195 199 176 172 165 164 157 175 187 174 164 143 140 151 169 180 155 153 195 203 198 179 160 174 239 161 175 154 169 170 231 238 270 279 223 214 273 289 249 263 256 250 252 254 252
192 192 176 168 165 164 168 167 134 157 127 144 148 176 169 180 144 173 178 207 203 195 130 192 239 197 166 107 233 218 62 202 205 247 252 233 250 246 314 259 254 248 249 256 256
186 164 169 167 164 168 178 180 122 160 135 139 158 129 168 173 154 176 175 274 185 181 194 154 174 130 133 205 197 183 207 232 242 205 227 253 253 210 238 235 249 255 256 262 269
161 139 161 160 163 171 177 147 122 140 137 127 112 109 158 162 131 158 187 185 187 159 194 193 190 241 227 151 251 255 225 215 217 212 238 306 265 194 227 254 249 261 269 273 271
152 130 159 159 165 166 160 105 115 148 147 141 113 147 128 150 131 188 165 146 147 169 170 161 212 229 190 209 187 245 238 240 253 270 262 249 260 257 224 251 263 271 283 284 273
163 144 154 171 171 159 155 153 117 141 98 90 108 112 103 131 23 151 122 128 122 148 135 186 188 208 234 125 34 226 225 227 240 240 240 237 260 250 281 272 286 271 287 287 280
185 156 154 159 160 158 160 111 138 137 122 133 78 156 134 133 91 95 103 103 115 140 120 133 175 204 278 231 275 332 286 237 225 234 232 243 247 259 252 275 288 295 301 293 276
155 148 146 147 154 149 163 168 160 113 152 158 138 144 105 122 151 163 137 156 178 149 125 178 261 181 249 234 177 267 270 273 257 234 234 248 256 256 267 259 264 269 269 278 273
154 142 144 152 158 154 178 165 154 127 30 120 130 115 102 155 140 161 155 160 151 142 151 163 154 106 261 190 184 257 254 245 236 238 230 239 243 261 251 251 254 258 256 256 270